Location: Tamazert
(32.6352°N, 5.2072°W)
Time: 16:51:16
(UTC+00:00)

Vanguard 3 - Pass Details

Date: 11 October 2022
Orbit: 509 x 3255 km, 33.3° (Epoch: 08 December)

Event Time Altitude Azimuth Distance (km) Brightness Sun altitude
Rises 03:48:20 0° 213° (SSW) 3,987 - -32.9°
Reaches altitude 10° 03:52:41 10° 193° (SSW) 2,534 - -32.0°
Maximum altitude 03:55:58 15° 157° (SSE) 1,856 - -31.3°
Exits shadow 03:56:34 15° 148° (SSE) 1,822 9.1 -31.2°
Drops below altitude 10° 03:58:38 10° 120° (ESE) 1,983 9.7 -30.8°
Sets 04:01:24 0° 95° (E) 2,708 10.9 -30.2°
